Hourly Data Report for February 24, 2003

SHERBROOKE A
QUEBEC

45°26'00.000" N
71°41'00.000" W
241.40 m
7028124
71610
YSC

Download Data

Hourly Data (February 2003)
Hourly Data Report for February 24, 2003
TIME
LST
Temp Definition
°C
Dew Point Definition
°C
Rel Hum Definition
%
Precip. Amount Definition
mm

Wind Dir Definition
10's deg

Wind Spd Definition
km/h
Visibility Definition
km
Stn Press Definition
kPa
Hmdx Definition


Wind Chill Definition


Weather Definition


00:00 -10.5 -15.2 68   29 35 3.9 97.25   -21 Snow
01:00 -11.6 -16.2 69   28 37 8.0 97.47   -23  
02:00 -12.2 -16.5 70   27 33 11.3 97.78   -23 Snow
03:00 -13.5 -17.6 71   26 35 5.6 98.02   -25  
04:00 -14.5 -19.0 69   26 30 12.9 98.29   -25  
05:00 -14.5 -18.6 71   26 26 11.3 98.43   -25  
06:00 -15.0 -19.5 68   25 17 12.9 98.59   -23  
07:00 -16.0 -20.2 70   25 24 15.0 98.68   -26  
08:00 -15.7 -20.2 68   25 19 24.1 98.79   -25 Mainly Clear
09:00 -15.1 -20.2 65   25 19 24.1 98.93   -24 Mainly Clear
10:00 -14.4 -19.8 64   27 24 24.1 98.98   -24 Mainly Clear
11:00 -13.3 -20.2 56   27 17 24.1 99.01   -21 Mainly Clear
12:00 -12.5 -19.7 55   29 11 24.1 98.86   -19 Mainly Clear
13:00 -11.5 -19.1 53   27 11 24.1 98.77   -17 Mainly Clear
14:00 -11.1 -18.5 54   29 7 24.1 98.72   -15 Cloudy
15:00 -10.7 -18.2 54   28 6 24.1 98.65   -14 Mostly Cloudy
16:00 -10.7 -17.8 56   28 7 24.1 98.69   -15 Cloudy
17:00 -11.1 -17.4 60   27 6 24.1 98.72   -15 Cloudy
18:00 -11.4 -17.8 59   30 7 15.0 98.75   -16  
19:00 -11.7 -17.3 63   30 7 15.0 98.75   -16  
20:00 -12.1 -17.9 62   32 4 15.0 98.73   -15  
21:00 -12.7 -17.4 68   21 6 15.0 98.77   -17  
22:00 -13.2 -17.6 69   29 9 15.0 98.74   -19  
23:00 -13.4 -18.2 67   27 9 15.0 98.69   -19  

Notes on Data Quality.

Legend

  • E = Estimated
  • M = Missing
  • NA = Not Available*
  • [empty] = Indicates an unobserved value
Date modified: